Time,TemperatureF,DewpointF,PressureIn,WindDirection,WindDirectionDegrees,WindSpeedMPH,WindSpeedGustMPH,Humidity,HourlyPrecipIn,Conditions,Clouds,dailyrainin,SoftwareType,DateUTC
2013-05-19 00:00:00,43.7,42.1,30.28,ENE,75,0.0,1.0,94,0.00,,,0.00,Wunderground v.1.15,2013-05-19 04:00:00,
2013-05-19 00:05:00,43.1,41.2,30.28,ENE,75,0.0,1.0,93,0.00,,,0.00,Wunderground v.1.15,2013-05-19 04:05:00,
2013-05-19 00:10:00,42.7,41.1,30.28,ENE,75,0.0,1.0,94,0.00,,,0.00,Wunderground v.1.15,2013-05-19 04:10:00,
2013-05-19 00:20:00,42.8,41.5,30.28,NNW,328,0.0,1.0,95,0.00,,,0.00,Wunderground v.1.15,2013-05-19 04:20:00,
2013-05-19 00:25:00,42.9,41.6,30.28,NNW,327,0.0,1.0,95,0.00,,,0.00,Wunderground v.1.15,2013-05-19 04:25:00,
2013-05-19 00:30:00,42.9,41.6,30.28,NNW,327,0.0,1.0,95,0.00,,,0.00,Wunderground v.1.15,2013-05-19 04:30:00,
2013-05-19 00:35:00,43.1,41.8,30.28,NNW,327,0.0,1.0,95,0.00,,,0.00,Wunderground v.1.15,2013-05-19 04:35:00,
2013-05-19 00:45:00,43.3,42.0,30.28,WNW,289,0.0,1.0,95,0.00,,,0.00,Wunderground v.1.15,2013-05-19 04:45:00,
2013-05-19 00:50:00,43.3,42.0,30.28,WSW,239,0.0,1.0,95,0.00,,,0.00,Wunderground v.1.15,2013-05-19 04:50:00,
2013-05-19 00:55:00,43.3,42.0,30.28,WSW,239,0.0,1.0,95,0.00,,,0.00,Wunderground v.1.15,2013-05-19 04:55:00,
2013-05-19 01:05:00,43.9,42.8,30.28,ENE,70,0.0,1.0,96,0.00,,,0.00,Wunderground v.1.15,2013-05-19 05:05:00,
2013-05-19 01:10:00,44.4,43.3,30.28,ENE,70,0.0,1.0,96,0.00,,,0.00,Wunderground v.1.15,2013-05-19 05:10:00,
2013-05-19 01:15:00,44.6,43.5,30.28,ENE,70,0.0,1.0,96,0.00,,,0.00,Wunderground v.1.15,2013-05-19 05:15:00,
2013-05-19 01:25:00,45.0,43.9,30.28,ENE,70,0.0,1.0,96,0.00,,,0.00,Wunderground v.1.15,2013-05-19 05:25:00,
2013-05-19 01:35:00,45.0,43.7,30.28,ENE,70,0.0,1.0,95,0.00,,,0.00,Wunderground v.1.15,2013-05-19 05:35:00,
2013-05-19 01:45:00,45.2,43.9,30.27,ENE,70,0.0,1.0,95,0.00,,,0.00,Wunderground v.1.15,2013-05-19 05:45:00,
2013-05-19 01:50:00,45.4,44.1,30.27,ENE,70,0.0,1.0,95,0.00,,,0.00,Wunderground v.1.15,2013-05-19 05:50:00,
2013-05-19 02:00:00,45.7,44.4,30.28,ENE,70,0.0,1.0,95,0.00,,,0.00,Wunderground v.1.15,2013-05-19 06:00:00,
2013-05-19 02:05:00,45.8,44.4,30.27,ENE,70,0.0,1.0,95,0.00,,,0.00,Wunderground v.1.15,2013-05-19 06:05:00,
2013-05-19 02:15:00,46.1,44.7,30.27,ENE,59,0.0,1.0,95,0.00,,,0.00,Wunderground v.1.15,2013-05-19 06:15:00,
2013-05-19 02:20:00,46.1,44.5,30.27,North,353,0.0,1.0,94,0.00,,,0.00,Wunderground v.1.15,2013-05-19 06:20:00,
2013-05-19 02:30:00,46.3,44.7,30.27,NNE,25,0.0,1.0,94,0.00,,,0.00,Wunderground v.1.15,2013-05-19 06:30:00,
2013-05-19 02:35:00,46.4,44.8,30.27,NNE,29,0.0,1.0,94,0.00,,,0.00,Wunderground v.1.15,2013-05-19 06:35:00,
2013-05-19 02:45:00,46.6,45.0,30.27,NNE,25,0.0,1.0,94,0.00,,,0.00,Wunderground v.1.15,2013-05-19 06:45:00,
2013-05-19 02:55:00,46.8,44.9,30.27,ENE,58,1.0,1.0,93,0.00,,,0.00,Wunderground v.1.15,2013-05-19 06:55:00,
2013-05-19 03:00:00,46.8,44.9,30.27,NE,34,1.0,1.0,93,0.00,,,0.00,Wunderground v.1.15,2013-05-19 07:00:00,
2013-05-19 03:10:00,46.9,45.0,30.27,ENE,63,0.0,1.0,93,0.00,,,0.00,Wunderground v.1.15,2013-05-19 07:10:00,
2013-05-19 03:20:00,46.9,45.0,30.27,East,94,1.0,1.0,93,0.00,,,0.00,Wunderground v.1.15,2013-05-19 07:20:00,
2013-05-19 03:25:00,46.9,45.0,30.27,ESE,108,1.0,1.0,93,0.00,,,0.00,Wunderground v.1.15,2013-05-19 07:25:00,
2013-05-19 03:35:00,46.9,45.0,30.27,East,101,1.0,2.0,93,0.00,,,0.00,Wunderground v.1.15,2013-05-19 07:35:00,
2013-05-19 03:45:00,46.8,44.9,30.27,East,81,1.0,2.0,93,0.00,,,0.00,Wunderground v.1.15,2013-05-19 07:45:00,
2013-05-19 03:50:00,46.9,45.0,30.27,ENE,76,0.0,1.0,93,0.00,,,0.00,Wunderground v.1.15,2013-05-19 07:50:00,
2013-05-19 03:55:00,46.9,44.7,30.27,NE,49,1.0,3.0,92,0.00,,,0.00,Wunderground v.1.15,2013-05-19 07:55:00,
2013-05-19 04:05:00,46.9,44.7,30.28,NE,43,1.0,1.0,92,0.00,,,0.00,Wunderground v.1.15,2013-05-19 08:05:00,
2013-05-19 04:10:00,46.9,44.7,30.28,North,5,1.0,1.0,92,0.00,,,0.00,Wunderground v.1.15,2013-05-19 08:10:00,
2013-05-19 04:20:00,46.9,44.7,30.28,ENE,62,0.0,1.0,92,0.00,,,0.00,Wunderground v.1.15,2013-05-19 08:20:00,
2013-05-19 04:30:00,46.9,45.0,30.28,NE,41,0.0,1.0,93,0.00,,,0.00,Wunderground v.1.15,2013-05-19 08:30:00,
2013-05-19 04:40:00,46.9,44.7,30.28,East,91,0.0,1.0,92,0.00,,,0.00,Wunderground v.1.15,2013-05-19 08:40:00,
2013-05-19 04:45:00,46.8,44.6,30.28,NNE,31,0.0,1.0,92,0.00,,,0.00,Wunderground v.1.15,2013-05-19 08:45:00,
2013-05-19 04:55:00,46.8,44.6,30.29,NNE,33,0.0,1.0,92,0.00,,,0.00,Wunderground v.1.15,2013-05-19 08:55:00,
2013-05-19 05:00:00,46.7,44.5,30.29,NNE,18,0.0,1.0,92,0.00,,,0.00,Wunderground v.1.15,2013-05-19 09:00:00,
2013-05-19 05:10:00,46.8,44.9,30.29,NNE,18,0.0,1.0,93,0.00,,,0.00,Wunderground v.1.15,2013-05-19 09:10:00,
2013-05-19 05:15:00,46.8,44.9,30.30,NNE,18,0.0,1.0,93,0.00,,,0.00,Wunderground v.1.15,2013-05-19 09:15:00,
2013-05-19 05:25:00,46.6,44.7,30.30,NNE,32,1.0,1.0,93,0.00,,,0.00,Wunderground v.1.15,2013-05-19 09:25:00,
2013-05-19 05:30:00,46.6,44.7,30.30,NE,47,1.0,1.0,93,0.00,,,0.00,Wunderground v.1.15,2013-05-19 09:30:00,
2013-05-19 05:40:00,46.4,44.8,30.30,North,3,0.0,1.0,94,0.00,,,0.00,Wunderground v.1.15,2013-05-19 09:40:00,
2013-05-19 05:45:00,46.4,44.8,30.30,ENE,73,0.0,1.0,94,0.00,,,0.00,Wunderground v.1.15,2013-05-19 09:45:00,
2013-05-19 05:55:00,46.4,44.8,30.30,East,101,0.0,1.0,94,0.00,,,0.00,Wunderground v.1.15,2013-05-19 09:55:00,
2013-05-19 06:00:00,46.4,44.8,30.31,NNW,329,0.0,1.0,94,0.00,,,0.00,Wunderground v.1.15,2013-05-19 10:00:00,
2013-05-19 06:10:00,46.4,44.8,30.31,East,99,1.0,1.0,94,0.00,,,0.00,Wunderground v.1.15,2013-05-19 10:10:00,
2013-05-19 06:20:00,46.4,45.0,30.31,East,101,1.0,1.0,95,0.00,,,0.00,Wunderground v.1.15,2013-05-19 10:20:00,
2013-05-19 06:25:00,46.4,45.0,30.31,NE,40,0.0,2.0,95,0.00,,,0.00,Wunderground v.1.15,2013-05-19 10:25:00,
2013-05-19 06:35:00,46.6,45.2,30.31,NNE,27,1.0,1.0,95,0.00,,,0.00,Wunderground v.1.15,2013-05-19 10:35:00,
2013-05-19 06:40:00,46.7,45.3,30.31,SE,136,1.0,1.0,95,0.00,,,0.00,Wunderground v.1.15,2013-05-19 10:40:00,
2013-05-19 06:50:00,46.7,45.3,30.30,East,84,1.0,1.0,95,0.00,,,0.00,Wunderground v.1.15,2013-05-19 10:50:00,
2013-05-19 06:55:00,46.9,45.5,30.30,SE,127,1.0,2.0,95,0.00,,,0.00,Wunderground v.1.15,2013-05-19 10:55:00,
2013-05-19 07:05:00,47.1,45.7,30.30,East,94,1.0,2.0,95,0.00,,,0.00,Wunderground v.1.15,2013-05-19 11:05:00,
2013-05-19 07:15:00,47.2,45.8,30.30,ESE,122,1.0,2.0,95,0.00,,,0.00,Wunderground v.1.15,2013-05-19 11:15:00,
2013-05-19 07:20:00,47.1,45.5,30.30,ESE,107,2.0,2.0,94,0.00,,,0.00,Wunderground v.1.15,2013-05-19 11:20:00,
2013-05-19 07:30:00,47.2,45.6,30.31,SE,125,2.0,2.0,94,0.00,,,0.00,Wunderground v.1.15,2013-05-19 11:30:00,
2013-05-19 07:40:00,47.7,46.1,30.31,East,82,2.0,2.0,94,0.00,,,0.00,Wunderground v.1.15,2013-05-19 11:40:00,
2013-05-19 07:50:00,47.8,45.9,30.31,East,93,2.0,2.0,93,0.00,,,0.00,Wunderground v.1.15,2013-05-19 11:50:00,
2013-05-19 08:00:00,48.4,46.2,30.31,ESE,109,2.0,2.0,92,0.00,,,0.00,Wunderground v.1.15,2013-05-19 12:00:00,
2013-05-19 08:05:00,48.8,46.6,30.31,East,101,2.0,2.0,92,0.00,,,0.00,Wunderground v.1.15,2013-05-19 12:05:00,
2013-05-19 08:15:00,49.2,46.4,30.31,ESE,108,2.0,2.0,90,0.00,,,0.00,Wunderground v.1.15,2013-05-19 12:15:00,
2013-05-19 08:20:00,49.6,46.8,30.31,ESE,122,1.0,2.0,90,0.00,,,0.00,Wunderground v.1.15,2013-05-19 12:20:00,
2013-05-19 08:25:00,49.8,47.0,30.32,East,98,1.0,2.0,90,0.00,,,0.00,Wunderground v.1.15,2013-05-19 12:25:00,
2013-05-19 08:35:00,50.0,46.9,30.32,NNE,12,1.0,2.0,89,0.00,,,0.00,Wunderground v.1.15,2013-05-19 12:35:00,
2013-05-19 08:45:00,50.1,47.0,30.32,NW,324,1.0,1.0,89,0.00,,,0.00,Wunderground v.1.15,2013-05-19 12:45:00,
2013-05-19 08:50:00,50.2,46.5,30.32,NW,321,1.0,1.0,87,0.00,,,0.00,Wunderground v.1.15,2013-05-19 12:50:00,
2013-05-19 09:00:00,51.0,47.3,30.32,ENE,75,0.0,2.0,87,0.00,,,0.00,Wunderground v.1.15,2013-05-19 13:00:00,
2013-05-19 09:05:00,51.0,47.0,30.32,East,79,1.0,2.0,86,0.00,,,0.00,Wunderground v.1.15,2013-05-19 13:05:00,
2013-05-19 09:15:00,50.7,46.4,30.32,NW,314,1.0,3.0,85,0.00,,,0.00,Wunderground v.1.15,2013-05-19 13:15:00,
2013-05-19 09:25:00,51.2,47.2,30.32,WNW,295,0.0,1.0,86,0.00,,,0.00,Wunderground v.1.15,2013-05-19 13:25:00,
2013-05-19 09:30:00,51.2,46.8,30.32,ESE,108,1.0,1.0,85,0.00,,,0.00,Wunderground v.1.15,2013-05-19 13:30:00,
2013-05-19 09:40:00,51.2,47.2,30.32,ESE,114,1.0,1.0,86,0.00,,,0.00,Wunderground v.1.15,2013-05-19 13:40:00,
2013-05-19 09:45:00,51.5,46.8,30.32,WSW,256,1.0,1.0,84,0.00,,,0.00,Wunderground v.1.15,2013-05-19 13:45:00,
2013-05-19 09:55:00,51.6,46.9,30.32,ENE,74,1.0,1.0,84,0.00,,,0.00,Wunderground v.1.15,2013-05-19 13:55:00,
2013-05-19 10:05:00,52.0,47.0,30.32,ENE,75,1.0,1.0,83,0.00,,,0.00,Wunderground v.1.15,2013-05-19 14:05:00,
2013-05-19 10:15:00,52.6,47.3,30.32,North,357,1.0,4.0,82,0.00,,,0.00,Wunderground v.1.15,2013-05-19 14:15:00,
2013-05-19 10:20:00,52.9,47.2,30.32,ESE,115,1.0,2.0,81,0.00,,,0.00,Wunderground v.1.15,2013-05-19 14:20:00,
2013-05-19 10:30:00,53.2,47.8,30.32,SE,134,1.0,1.0,82,0.00,,,0.00,Wunderground v.1.15,2013-05-19 14:30:00,
2013-05-19 10:35:00,53.9,47.9,30.32,NNE,30,1.0,2.0,80,0.00,,,0.00,Wunderground v.1.15,2013-05-19 14:35:00,
2013-05-19 10:45:00,54.8,48.4,30.32,SSE,167,1.0,2.0,79,0.00,,,0.00,Wunderground v.1.15,2013-05-19 14:45:00,
2013-05-19 10:55:00,54.7,47.6,30.32,WSW,244,2.0,3.0,77,0.00,,,0.00,Wunderground v.1.15,2013-05-19 14:55:00,
2013-05-19 11:00:00,55.4,48.3,30.32,NE,34,1.0,1.0,77,0.00,,,0.00,Wunderground v.1.15,2013-05-19 15:00:00,
2013-05-19 11:10:00,57.2,49.0,30.32,SSE,148,1.0,1.0,74,0.00,,,0.00,Wunderground v.1.15,2013-05-19 15:10:00,
2013-05-19 11:15:00,57.6,49.0,30.32,ESE,116,2.0,2.0,73,0.00,,,0.00,Wunderground v.1.15,2013-05-19 15:15:00,
2013-05-19 11:25:00,57.6,48.3,30.32,NNE,15,2.0,3.0,71,0.00,,,0.00,Wunderground v.1.15,2013-05-19 15:25:00,
2013-05-19 11:30:00,57.9,48.6,30.32,WSW,243,1.0,2.0,71,0.00,,,0.00,Wunderground v.1.15,2013-05-19 15:30:00,
2013-05-19 11:40:00,57.9,48.9,30.31,ENE,65,2.0,2.0,72,0.00,,,0.00,Wunderground v.1.15,2013-05-19 15:40:00,
2013-05-19 11:45:00,59.0,51.8,30.31,SE,125,3.0,3.0,77,0.00,,,0.00,Wunderground v.1.15,2013-05-19 15:45:00,
2013-05-19 11:55:00,59.4,49.2,30.31,SW,232,2.0,4.0,69,0.00,,,0.00,Wunderground v.1.15,2013-05-19 15:55:00,
2013-05-19 12:00:00,59.9,50.1,30.31,SSE,160,2.0,2.0,70,0.00,,,0.00,Wunderground v.1.15,2013-05-19 16:00:00,
2013-05-19 12:10:00,60.7,50.5,30.31,SSW,201,3.0,3.0,69,0.00,,,0.00,Wunderground v.1.15,2013-05-19 16:10:00,
2013-05-19 12:15:00,61.0,50.4,30.31,SE,133,2.0,3.0,68,0.00,,,0.00,Wunderground v.1.15,2013-05-19 16:15:00,
2013-05-19 12:25:00,61.6,52.5,30.30,East,81,2.0,3.0,72,0.00,,,0.00,Wunderground v.1.15,2013-05-19 16:25:00,
2013-05-19 12:35:00,61.9,49.2,30.30,West,274,3.0,4.0,63,0.00,,,0.00,Wunderground v.1.15,2013-05-19 16:35:00,
2013-05-19 12:40:00,62.2,50.3,30.30,SW,214,3.0,7.0,65,0.00,,,0.00,Wunderground v.1.15,2013-05-19 16:40:00,
2013-05-19 12:50:00,62.8,50.0,30.29,SSW,193,3.0,6.0,63,0.00,,,0.00,Wunderground v.1.15,2013-05-19 16:50:00,
2013-05-19 13:00:00,63.4,49.3,30.29,WSW,247,4.0,4.0,60,0.00,,,0.00,Wunderground v.1.15,2013-05-19 17:00:00,
2013-05-19 13:05:00,63.6,51.2,30.28,South,186,2.0,4.0,64,0.00,,,0.00,Wunderground v.1.15,2013-05-19 17:05:00,
2013-05-19 13:15:00,64.2,50.0,30.28,WSW,252,3.0,5.0,60,0.00,,,0.00,Wunderground v.1.15,2013-05-19 17:15:00,
2013-05-19 13:25:00,64.5,49.8,30.28,SSW,195,4.0,5.0,59,0.00,,,0.00,Wunderground v.1.15,2013-05-19 17:25:00,
2013-05-19 13:30:00,64.9,50.2,30.27,SSW,193,3.0,3.0,59,0.00,,,0.00,Wunderground v.1.15,2013-05-19 17:30:00,
2013-05-19 13:40:00,65.0,50.3,30.27,NNE,12,1.0,1.0,59,0.00,,,0.00,Wunderground v.1.15,2013-05-19 17:40:00,
2013-05-19 13:45:00,66.0,49.8,30.26,SE,124,1.0,4.0,56,0.00,,,0.00,Wunderground v.1.15,2013-05-19 17:45:00,
2013-05-19 13:50:00,65.4,49.3,30.26,East,89,3.0,3.0,56,0.00,,,0.00,Wunderground v.1.15,2013-05-19 17:50:00,
2013-05-19 14:00:00,66.0,48.9,30.26,East,99,2.0,2.0,54,0.00,,,0.00,Wunderground v.1.15,2013-05-19 18:00:00,
2013-05-19 14:10:00,66.5,50.3,30.25,SSE,153,4.0,4.0,56,0.00,,,0.00,Wunderground v.1.15,2013-05-19 18:10:00,
2013-05-19 14:20:00,66.4,50.2,30.25,SE,146,4.0,4.0,56,0.00,,,0.00,Wunderground v.1.15,2013-05-19 18:20:00,
2013-05-19 14:25:00,66.2,49.1,30.25,SSW,209,4.0,4.0,54,0.00,,,0.00,Wunderground v.1.15,2013-05-19 18:25:00,
2013-05-19 14:35:00,65.9,48.8,30.25,SE,124,4.0,5.0,54,0.00,,,0.00,Wunderground v.1.15,2013-05-19 18:35:00,
2013-05-19 14:45:00,66.0,49.4,30.24,SE,143,4.0,4.0,55,0.00,,,0.00,Wunderground v.1.15,2013-05-19 18:45:00,
2013-05-19 14:50:00,66.1,50.4,30.24,South,176,5.0,9.0,57,0.00,,,0.00,Wunderground v.1.15,2013-05-19 18:50:00,
2013-05-19 15:00:00,65.5,51.7,30.24,SW,222,5.0,5.0,61,0.00,,,0.00,Wunderground v.1.15,2013-05-19 19:00:00,
2013-05-19 15:05:00,65.4,50.7,30.24,SE,129,5.0,5.0,59,0.00,,,0.00,Wunderground v.1.15,2013-05-19 19:05:00,
2013-05-19 15:15:00,64.4,51.1,30.24,SSW,193,5.0,6.0,62,0.00,,,0.00,Wunderground v.1.15,2013-05-19 19:15:00,
2013-05-19 15:25:00,63.9,50.2,30.24,SE,136,6.0,6.0,61,0.00,,,0.00,Wunderground v.1.15,2013-05-19 19:25:00,
2013-05-19 15:30:00,63.5,51.1,30.24,SSW,207,6.0,7.0,64,0.00,,,0.00,Wunderground v.1.15,2013-05-19 19:30:00,
2013-05-19 15:40:00,62.9,50.5,30.24,SE,142,6.0,6.0,64,0.00,,,0.00,Wunderground v.1.15,2013-05-19 19:40:00,
2013-05-19 15:45:00,62.5,50.2,30.24,SSW,193,6.0,6.0,64,0.00,,,0.00,Wunderground v.1.15,2013-05-19 19:45:00,
2013-05-19 15:55:00,61.9,50.4,30.24,South,175,6.0,9.0,66,0.00,,,0.00,Wunderground v.1.15,2013-05-19 19:55:00,
2013-05-19 16:00:00,61.4,50.7,30.24,South,189,6.0,6.0,68,0.00,,,0.00,Wunderground v.1.15,2013-05-19 20:00:00,
2013-05-19 16:05:00,61.0,51.1,30.24,SSE,150,5.0,6.0,70,0.00,,,0.00,Wunderground v.1.15,2013-05-19 20:05:00,
2013-05-19 16:15:00,60.2,50.8,30.24,South,171,6.0,9.0,71,0.00,,,0.00,Wunderground v.1.15,2013-05-19 20:15:00,
2013-05-19 16:20:00,59.6,49.4,30.24,SSW,195,6.0,6.0,69,0.00,,,0.00,Wunderground v.1.15,2013-05-19 20:20:00,
2013-05-19 16:30:00,59.1,49.3,30.24,SSW,204,6.0,6.0,70,0.00,,,0.00,Wunderground v.1.15,2013-05-19 20:30:00,
2013-05-19 16:35:00,58.8,49.8,30.24,SSW,200,6.0,7.0,72,0.00,,,0.00,Wunderground v.1.15,2013-05-19 20:35:00,
2013-05-19 16:45:00,59.1,49.7,30.24,South,191,5.0,6.0,71,0.00,,,0.00,Wunderground v.1.15,2013-05-19 20:45:00,
2013-05-19 16:55:00,59.3,49.5,30.24,South,176,5.0,7.0,70,0.00,,,0.00,Wunderground v.1.15,2013-05-19 20:55:00,
2013-05-19 17:05:00,58.9,48.7,30.23,SSE,160,4.0,5.0,69,0.00,,,0.00,Wunderground v.1.15,2013-05-19 21:05:00,
2013-05-19 17:15:00,58.2,48.5,30.23,South,172,4.0,4.0,70,0.00,,,0.00,Wunderground v.1.15,2013-05-19 21:15:00,
2013-05-19 17:25:00,57.4,48.1,30.23,SE,124,4.0,7.0,71,0.00,,,0.00,Wunderground v.1.15,2013-05-19 21:25:00,
2013-05-19 17:35:00,57.0,48.1,30.23,SSE,160,4.0,5.0,72,0.00,,,0.00,Wunderground v.1.15,2013-05-19 21:35:00,
2013-05-19 17:40:00,56.9,48.0,30.23,South,190,3.0,3.0,72,0.00,,,0.00,Wunderground v.1.15,2013-05-19 21:40:00,
2013-05-19 17:50:00,56.7,48.5,30.23,South,183,3.0,5.0,74,0.00,,,0.00,Wunderground v.1.15,2013-05-19 21:50:00,
2013-05-19 17:55:00,56.4,48.2,30.23,SE,135,4.0,5.0,74,0.00,,,0.00,Wunderground v.1.15,2013-05-19 21:55:00,
2013-05-19 18:05:00,55.9,48.1,30.23,South,188,3.0,4.0,75,0.00,,,0.00,Wunderground v.1.15,2013-05-19 22:05:00,
2013-05-19 18:10:00,55.6,47.8,30.23,ESE,122,3.0,5.0,75,0.00,,,0.00,Wunderground v.1.15,2013-05-19 22:10:00,
2013-05-19 18:15:00,55.1,47.7,30.23,South,181,4.0,5.0,76,0.00,,,0.00,Wunderground v.1.15,2013-05-19 22:15:00,
2013-05-19 18:20:00,54.8,47.7,30.23,SE,127,4.0,4.0,77,0.00,,,0.00,Wunderground v.1.15,2013-05-19 22:20:00,
2013-05-19 18:30:00,54.5,47.8,30.23,SSE,151,2.0,2.0,78,0.00,,,0.00,Wunderground v.1.15,2013-05-19 22:30:00,
2013-05-19 18:35:00,54.4,47.7,30.23,South,179,3.0,3.0,78,0.00,,,0.00,Wunderground v.1.15,2013-05-19 22:35:00,
2013-05-19 18:45:00,53.8,47.4,30.23,East,99,3.0,4.0,79,0.00,,,0.00,Wunderground v.1.15,2013-05-19 22:45:00,
2013-05-19 18:50:00,53.5,47.5,30.23,SE,136,3.0,4.0,80,0.00,,,0.00,Wunderground v.1.15,2013-05-19 22:50:00,
2013-05-19 19:00:00,53.1,47.4,30.23,SSE,152,3.0,3.0,81,0.00,,,0.00,Wunderground v.1.15,2013-05-19 23:00:00,
2013-05-19 19:05:00,52.8,47.5,30.23,SE,143,3.0,4.0,82,0.00,,,0.00,Wunderground v.1.15,2013-05-19 23:05:00,
2013-05-19 19:15:00,52.4,47.1,30.22,East,101,2.0,6.0,82,0.00,,,0.00,Wunderground v.1.15,2013-05-19 23:15:00,
2013-05-19 19:25:00,52.0,46.7,30.23,SE,132,2.0,5.0,82,0.00,,,0.00,Wunderground v.1.15,2013-05-19 23:25:00,
2013-05-19 19:35:00,51.5,46.5,30.23,ENE,73,3.0,5.0,83,0.00,,,0.00,Wunderground v.1.15,2013-05-19 23:35:00,
2013-05-19 19:40:00,51.3,46.6,30.22,SE,141,3.0,3.0,84,0.00,,,0.00,Wunderground v.1.15,2013-05-19 23:40:00,
2013-05-19 19:50:00,50.9,46.6,30.23,ESE,108,3.0,3.0,85,0.00,,,0.00,Wunderground v.1.15,2013-05-19 23:50:00,
2013-05-19 19:55:00,50.7,46.7,30.23,East,99,3.0,3.0,86,0.00,,,0.00,Wunderground v.1.15,2013-05-19 23:55:00,
2013-05-19 20:05:00,50.5,46.8,30.23,SE,127,1.0,2.0,87,0.00,,,0.00,Wunderground v.1.15,2013-05-20 00:05:00,
2013-05-19 20:15:00,50.4,47.0,30.23,ENE,77,1.0,1.0,88,0.00,,,0.00,Wunderground v.1.15,2013-05-20 00:15:00,
2013-05-19 20:20:00,50.3,46.9,30.23,East,96,2.0,2.0,88,0.00,,,0.00,Wunderground v.1.15,2013-05-20 00:20:00,
2013-05-19 20:30:00,50.3,47.2,30.23,East,94,2.0,2.0,89,0.00,,,0.00,Wunderground v.1.15,2013-05-20 00:30:00,
2013-05-19 20:35:00,50.2,47.1,30.23,East,96,2.0,3.0,89,0.00,,,0.00,Wunderground v.1.15,2013-05-20 00:35:00,
2013-05-19 20:45:00,50.0,47.2,30.23,SE,134,2.0,3.0,90,0.00,,,0.00,Wunderground v.1.15,2013-05-20 00:45:00,
2013-05-19 20:55:00,49.7,47.2,30.23,SE,137,2.0,2.0,91,0.00,,,0.00,Wunderground v.1.15,2013-05-20 00:55:00,
2013-05-19 21:05:00,49.5,47.3,30.23,SE,143,2.0,2.0,92,0.00,,,0.00,Wunderground v.1.15,2013-05-20 01:05:00,
2013-05-19 21:10:00,49.4,47.5,30.23,South,191,2.0,3.0,93,0.00,,,0.00,Wunderground v.1.15,2013-05-20 01:10:00,
2013-05-19 21:20:00,49.3,47.4,30.24,SSE,147,1.0,1.0,93,0.00,,,0.01,Wunderground v.1.15,2013-05-20 01:20:00,
2013-05-19 21:25:00,49.3,47.4,30.24,SE,145,1.0,1.0,93,0.00,,,0.01,Wunderground v.1.15,2013-05-20 01:25:00,
2013-05-19 21:35:00,49.2,47.5,30.24,East,100,1.0,1.0,94,0.04,,,0.02,Wunderground v.1.15,2013-05-20 01:35:00,
2013-05-19 21:40:00,49.2,47.5,30.24,SE,139,1.0,1.0,94,0.04,,,0.02,Wunderground v.1.15,2013-05-20 01:40:00,
2013-05-19 21:50:00,49.2,47.5,30.23,ESE,117,1.0,1.0,94,0.00,,,0.02,Wunderground v.1.15,2013-05-20 01:50:00,
2013-05-19 22:00:00,49.1,47.4,30.23,SSE,162,0.0,1.0,94,0.00,,,0.03,Wunderground v.1.15,2013-05-20 02:00:00,
2013-05-19 22:05:00,49.1,47.4,30.23,SE,124,1.0,1.0,94,0.00,,,0.03,Wunderground v.1.15,2013-05-20 02:05:00,
2013-05-19 22:15:00,49.1,47.7,30.23,South,171,1.0,1.0,95,0.04,,,0.04,Wunderground v.1.15,2013-05-20 02:15:00,
2013-05-19 22:25:00,49.0,47.6,30.23,SE,137,1.0,1.0,95,0.00,,,0.04,Wunderground v.1.15,2013-05-20 02:25:00,
2013-05-19 22:30:00,49.0,47.6,30.23,SE,139,1.0,1.0,95,0.00,,,0.05,Wunderground v.1.15,2013-05-20 02:30:00,
2013-05-19 22:40:00,49.0,47.6,30.22,ESE,117,1.0,1.0,95,0.00,,,0.05,Wunderground v.1.15,2013-05-20 02:40:00,
2013-05-19 22:45:00,49.0,47.6,30.22,SE,139,1.0,1.0,95,0.00,,,0.05,Wunderground v.1.15,2013-05-20 02:45:00,
2013-05-19 22:50:00,49.0,47.6,30.21,SSE,165,1.0,1.0,95,0.00,,,0.05,Wunderground v.1.15,2013-05-20 02:50:00,
2013-05-19 23:00:00,49.1,47.7,30.21,SSE,155,2.0,2.0,95,0.00,,,0.05,Wunderground v.1.15,2013-05-20 03:00:00,
2013-05-19 23:10:00,49.1,47.7,30.21,SSE,162,1.0,2.0,95,0.00,,,0.06,Wunderground v.1.15,2013-05-20 03:10:00,
2013-05-19 23:20:00,49.2,48.1,30.20,SSE,152,1.0,1.0,96,0.00,,,0.06,Wunderground v.1.15,2013-05-20 03:20:00,
2013-05-19 23:25:00,49.2,48.1,30.20,SSE,166,1.0,1.0,96,0.00,,,0.06,Wunderground v.1.15,2013-05-20 03:25:00,
2013-05-19 23:35:00,49.2,48.1,30.20,SE,145,1.0,2.0,96,0.00,,,0.06,Wunderground v.1.15,2013-05-20 03:35:00,
2013-05-19 23:45:00,49.2,48.1,30.19,ESE,107,2.0,2.0,96,0.00,,,0.06,Wunderground v.1.15,2013-05-20 03:45:00,
2013-05-19 23:55:00,49.2,48.1,30.18,SSE,160,1.0,2.0,96,0.00,,,0.07,Wunderground v.1.15,2013-05-20 03:55:00,